www.pogodaiklimat.ru

Погода и климат >> Архив погоды >> Россия >> Красноярский край >> Верхнеимбатск


ПОГОДА в Верхнеимбатске

  • Прогноз погоды в Верхнеимбатске
  • Монитор погоды в Верхнеимбатске
  • Климат города

АРХИВ ПОГОДЫ в Верхнеимбатске

Время (UTC), дата Ветер
(напр.,м/с)
 
Видим.   Явления Облачность Т
(С)
Тd
(С)
f
(%)
Тe
(С)
Тes
(С)
Комфортность P
(гПа)
Po
(гПа)
Тmin
(С)
Tmax
(С)
R
(мм)
R24
(мм)
S
(см)
00 11.11 В 2 н/о слабый снег 10/0
[As op]
-26.1 -29.3 74 -33 -33 опасность
обморожения
1024.2 1017.8 -28.1 0.0 25
03 11.11 ЮВ 3 20 км {снег} 10/0
[As op]
-25.5 -28.7 74 -34 -34 опасность
обморожения
1024.8 1018.4
06 11.11 ЮВ 3 20 км позёмок {снег, метель} 10/3 600 м
[Sc Ac lent Cs]
-24.4 -27.6 75 -33 -33 опасность
обморожения
1024.9 1018.5
09 11.11 ЮВ 4 20 км позёмок {метель} 8/3 600 м
[Sc Ac trans Cc]
-22.2 -25.5 74 -32 -32 опасность
обморожения
1023.7 1017.4
12 11.11 ЮВ 4
{10}
н/о позёмок {метель} 8/0
[Ci fib]
-22.0 -25.3 74 -31 -31 опасность
обморожения
1022.1 1015.8 -21.5 0.0
15 11.11 ЮВ 5
{13}
н/о позёмок {метель} 10/0
[As op]
-21.1 -24.4 75 -31 -31 опасность
обморожения
1018.6 1012.4
18 11.11 ЮВ 6-11
{12}
н/о слабый снег {метель} 10/0
[As op]
-20.2 -23.5 75 -31 -31 опасность
обморожения
1014.1 1007.9
21 11.11 ЮВ 5
{14}
н/о снег {метель} 10/0
[As op]
-19.6 -22.2 80 -30 -30 1011.7 1005.5
00 12.11 ЮВ 4
{11}
н/о снег {метель} 10/0
[As op]
-19.0 -21.6 80 -28 -28 1008.7 1002.6 -22.0 6
03 12.11 ЮВ 4-10
{11}
4000 м снег {метель} 10/0
[As op]
-17.6 -21.0 75 -26 -26 1008.0 1001.9
06 12.11 ЮВ 4
{10}
4000 м слабый снег {метель} 10/0
[As op]
-16.5 -19.9 75 -25 -25 1007.4 1001.4
09 12.11 ЮВ 3 4000 м слабый снег {метель} 10/0
[As op]
-15.5 -18.2 80 -22 -22 1008.1 1002.1
12 12.11 ЮВ 3 н/о слабый снег {метель} 10/0
[As op]
-15.0 -17.7 80 -22 -22 1008.7 1002.7 -15.0 2
15 12.11 ЮВ 3 н/о позёмок {снег, метель} 10/0
[As op]
-14.6 -17.3 80 -21 -21 1009.0 1003.0
18 12.11 ЮВ 2 н/о слабый снег {метель} 10/0
[As op]
-13.9 -16.6 80 -19 -19 1009.5 1003.5
21 12.11 З 5 н/о слабый снег {метель} 10/0
[As op]
-16.8 -19.4 80 -26 -26 1012.1 1006.0
00 13.11 З 3 н/о позёмок {снег, метель} 4/0
[Ci fib]
-21.4 -23.9 80 -29 -29 1014.5 1008.3 -21.6 0.4 22
03 13.11 СЗ 2 20 км {метель} 1/1 600 м
[Sc]
-23.0 -25.6 79 -29 -29 1017.3 1011.0 -23.0
06 13.11 СЗ 1 20 км {метель} ясно -22.5 -25.7 75 -26 -25 1018.8 1012.6
09 13.11 СЗ 1 20 км 3/0
[Ci fib]
-21.0 -23.5 80 -24 -24 1020.6 1014.4
12 13.11 В 1 н/о 3/0
[Ci fib]
-26.1 -29.3 74 -30 -30 1021.8 1015.4 -21.0
15 13.11 В 1 н/о ясно -23.5 -26.0 80 -27 -27 1021.1 1014.8
18 13.11 В 2 н/о ясно -21.6 -24.1 80 -28 -28 1019.2 1013.0
21 13.11 В 1 н/о слабый ливневой снег 10/10 600 м
[Cb cap]
-18.0 -20.6 80 -21 -21 1016.7 1010.5
00 14.11 В 3 н/о слабый ливневой снег 10/10 600 м
[Cb cap]
-15.8 -18.5 80 -23 -23 1014.5 1008.4 -27.8 0.8 22
03 14.11 Ю 3 10 км слабый ливневой снег 10/10 600 м
[Cb cap]
-12.6 -14.6 85 -19 -19 1012.7 1006.7
06 14.11 ЮВ 3 10 км слабый снег {ливн. осадки} 10/0
[As op]
-9.3 -11.3 85 -15 -15 1011.1 1005.1
09 14.11 ЮВ 3 10 км слабый снег 10/0
[Ac As]
-6.2 -7.7 89 -12 -12 1009.2 1003.4
12 14.11 ЮВ 3 н/о слабый снег 10/0
[As op]
-3.7 -4.8 92 -9 -9 1008.3 1002.5 -3.7 4
15 14.11 ЮВ 1 н/о слабый снег 10/0
[As op]
-4.6 -6.2 89 -7 -7 1007.7 1001.9
18 14.11 ЮВ 3 н/о слабый снег 10/0
[As op]
-5.4 -6.8 90 -11 -11 1006.5 1000.7
21 14.11 ЮВ 1 н/о слабый снег 10/0
[As op]
-5.8 -7.3 89 -8 -8 1004.2 998.4
00 15.11 ЮЗ 2 н/о слабый снег 10/0
[As op]
-6.4 -8.0 88 -11 -11 1002.7 996.9 -6.4 4 28
03 15.11 З 3 4000 м слабый снег 10/0
[As op]
-6.8 -8.0 91 -13 -13 1004.0 998.2 -6.9
06 15.11 СЗ 5
{10}
10 км слабый ливневой снег 10/4 600 м
[Cb cap Ac trans]
-7.3 -10.7 77 -15 -15 1006.3 1000.5
09 15.11 З 5
{12}
20 км позёмок {ливн. осадки, метель} 1/1 600 м
[Cu hum]
-10.8 -16.1 65 -19 -19 1012.1 1006.1
12 15.11 З 4
{10}
н/о позёмок {ливн. осадки, метель} ясно -13.6 -17.9 70 -21 -21 1017.0 1010.9 -6.4 2
15 15.11 З 4
{10}
н/о сильная пыльная буря {метель} ясно -15.5 -18.9 75 -23 -23 1019.5 1013.4
18 15.11 З 4
{10}
н/о позёмок {метель} 4/0
[As trans]
-16.3 -19.7 75 -24 -24 1022.1 1016.0
21 15.11 З 5
{11}
н/о слабый снег {метель} н/о -17.0 -20.4 75 -26 -26 1024.1 1018.0
00 16.11 З 6
{11}
н/о слабый снег {метель} 10/0
[As op]
-18.3 -20.9 80 -29 -29 1026.5 1020.2 -18.3 0.2 28
03 16.11 З 3
{10}
20 км {снег, метель} 9/0
[Ac trans]
-19.4 -22.0 80 -27 -27 1028.9 1022.6 -19.5
06 16.11 ЮЗ 2 20 км {снег, метель} 8/0
[Ac trans]
-17.5 -20.9 75 -23 -23 1030.4 1024.3
09 16.11 З 3 20 км 8/0
[Ac trans]
-15.8 -18.5 80 -23 -23 1031.8 1025.6
12 16.11 ЮВ 1 н/о {снег} 10/10 600 м
[Sc]
-15.8 -18.5 80 -18 -18 1032.3 1026.1 -15.8 0.4
15 16.11 штиль 0 н/о 10/10 600 м
[Sc]
-13.8 -16.5 80 -14 -14 1032.0 1025.8
18 16.11 ЮВ 1 н/о 10/0
[As trans]
-14.7 -17.4 80 -17 -17 1031.3 1025.1
21 16.11 ЮВ 1 н/о ясно -16.0 -17.9 85 -19 -19 1030.7 1024.6
00 17.11 ЮВ 1 н/о ясно -16.8 -18.7 85 -20 -20 1030.1 1024.0 -17.2 28
03 17.11 ЮВ 1 20 км 8/8 600 м
[Sc]
-17.8 -19.7 85 -21 -21 1029.5 1023.2 -17.8
06 17.11 Ю 1 20 км 10/10 600 м
[Sc]
-14.8 -17.5 80 -17 -17 1028.9 1022.8
09 17.11 ЮВ 2 20 км 3/1 600 м
[Sc Ac trans Ci fib]
-15.4 -18.8 75 -20 -20 1027.8 1021.7
12 17.11 ЮВ 2 н/о ясно -16.4 -19.0 80 -22 -22 1027.3 1021.2 -13.6
15 17.11 ЮВ 3 н/о ясно -18.0 -20.6 80 -25 -25 1026.9 1020.6
18 17.11 ЮВ 2 н/о ясно -18.4 -21.0 80 -24 -24 1026.5 1020.2

 

Местоположение метеостанции Верхнеимбатск (Красноярский край, Россия): широта 63.15 долгота 87.95 высота над уровнем моря 45 м.

В архиве по умолчанию представлена погода в Верхнеимбатске за последнюю неделю. Архивные данные за месяц целиком и за предыдущие месяцы, начиная с января 2011 года, Вы можете получить, выбрав интересующий диапазон дат из раскрывающегося списка и нажав кнопку "Ввод!".


*Определитесь, кто Вы:
робот инопланетянин человек

Внимание! Время в таблицах - всемирное. Для получения местного времени необходимо прибавить поправку, которая в Верхнеимбатске равна 7 ч.

Смотрите также архив погоды в соседних городах и на ближайших метеорологических станциях:

Погода в Бахте (Красноярский край, Россия) (93 км)
Погода в Келлоге (Красноярский край, Россия) (113 км)
Погода в Верещагино (Красноярский край, Россия) (122 км)
Погода в Боре (Красноярский край, Россия) (203 км)
Погода в Кузьмовке (Эвенкия, Россия) (232 км)
Погода в Ворогове (Красноярский край, Россия) (251 км)
Погода в Туруханске (Красноярский край, Россия) (293 км)
Погода в Большом Пороге (Эвенкия, Россия) (294 км)
Погода в Тольке (Ямало-Ненецкий АО, Россия) (305 км)
Погода в Тутончанах (Эвенкия, Россия) (310 км)

Пояснения к столбцам:

Ветер - указаны скорость ветра в м/с - средняя за 10 мин, порывы в срок и между сроками (в фигурных скобках) и направление, откуда дует ветер: С - северный, СВ - северо-восточный, В - восточный, ЮВ - юго-восточный, Ю - южный, ЮЗ - юго-западный, З - западный, СЗ - северо-западный.
Видимость - горизонтальная дальность видимости в метрах или километрах. При видимости от 1 до 10 км при отсутствии осадков обычно наблюдается дымка, при ухудшении видимости до 1 км и менее - туман. В сухую погоду видимость может ухудшаться дымом, пылью или мглою.
Явления - указаны атмосферные явления, наблюдавшиеся в срок или в последний час перед сроком; фигурными скобками обозначены явления, наблюдавшиеся между сроками (за 1-3 часа до срока); квадратными скобками обозначены град или гололедные отложения с указанием их диаметра в мм.
Облачность - указаны через наклонную черту общая и нижняя облачность в баллах и высота нижней границы облаков в метрах; квадратными скобками обозначены формы облаков: Ci - перистые, Cs - перисто-слоистые, Cc - перисто-кучевые, Ac - высококучевые, As - высокослоистые, Sc - слоисто-кучевые, Ns - слоисто-дождевые, Cu - кучевые, Cb - кучево-дождевые. Подробнее классификацию облаков см. в Атласе облаков (PDF).
T - Температура воздуха - температура, измеренная на высоте 2 м над землей.
Td - Температура точки росы - температура, при понижении до которой содержащийся в воздухе водяной пар достигнет насыщения.
f - Относительная влажность воздуха - влажноcть воздуха, измеренная на высоте 2 м над землей.
Te - Эффективная температура - температура, которую ощущает одетый по сезону человек в тени. Характеристика душности погоды. При расчете учитывается влияние влажности воздуха и скорости ветра на теплоощущения человека.
Tes - Эффективная температура на солнце - температура, которую ощущает человек, с поправкой на солнечный нагрев. Характеристика знойности погоды. Зависит от высоты солнца над горизонтом, облачности и скорости ветра. Ночью, в пасмурную погоду, а также при ветре 12 м/с и более поправка равна нулю.
P - Атмосферное давление - приведенное к уровню моря атмосферное давление.
Po - Атмосферное давление - измеренное на уровне метеостанции атмосферное давление.
Tmin - Минимальная температура - минимум температуры воздуха на высоте 2 м над землей.
Tmax - Максимальная температура - максимум температуры воздуха на высоте 2 м над землей.
R - Количество осадков - Количество выпавших осадков за период времени, мм. При наведении курсора мыши на число - период времени, за который выпало указанное количество осадков.
R24 - Количество осадков - Количество выпавших осадков за 24 часа, мм.
S - Снежный покров - Высота снежного покрова, см. При наведении курсора мыши на число - состояние снежного покрова и степень покрытия местности в баллах.